Location: Göttingen
(51.5413°N, 9.9158°E)
Time: 01:56:31
(UTC+02:00)

Envisat - Pass Details

Date: 23 January 2022
Orbit: 764 x 765 km, 98.2° (Epoch: 22 May)

Event Time Altitude Azimuth Distance (km) Brightness Sun altitude
Rises 05:26:48 0° 14° (NNE) 3,243 6.4 -25.2°
Reaches altitude 10° 05:29:07 10° 15° (NNE) 2,313 5.6 -24.8°
Maximum altitude 05:34:14 87° 103° (ESE) 773 2.9 -24.0°
Drops below altitude 10° 05:39:19 10° 195° (SSW) 2,297 5.3 -23.2°
Sets 05:41:36 0° 196° (SSW) 3,219 6.1 -22.9°
